星链-5542 (STARLINK-5542 )

导读 | 豆包AI

STARLINK-5542是美国太空探索技术公司(SpaceX)星链星座中的一颗卫星,属于星链卫星互联网计划Group 5-7批次任务,于2023年6月22日由猎鹰9号火箭从范登堡发射场发射升空。作为低轨互联网星座卫星,它主要为全球用户提供高速互联网接入服务,覆盖偏远地区与常规网络难以覆盖场景,支撑星链全球覆盖与商用服务拓展,推动卫星互联网产业发展。 截至当前,STARLINK-5542已在轨稳定运行近2年9个月,服务全球百万级星链订户。

基本信息
目录编号:
57075
目录名称:
STARLINK-5542
国际标识:
2023-088AD
轨道中心:
EARTH
卫星名称:
星链-5542
卫星全名:
星链-5542 (STARLINK-5542 )
卫星状态:
在轨 (已飞行997 天)
发射日期:
2023-06-22 UTC
国别 :
美国 (US)
星等 :
--
轨道信息
数据来源 国际轨道数据
星历时间: 2026-03-15T22:00:02+0800
7小时前
查看轨道信息
半长轴: 6891.311km
偏心率: 0.000154
轨道倾角: 42.999°
近地点辐角 243.619°
升交点赤经 62.044°
平近点角 18.839°
近地点: 512.112km
远地点: 514.236km
周期: 94.888分钟
每日圈数: 15.175746
详细信息
固有亮度:
5
最大亮度:
2.4
卫星平台:
Starlink v1.5
覆盖范围:
全球
运营商:
太空探索技术公司
运营商所在国:
美国
制造商(研发单位):
太空探索技术公司
制造商所在国:
美国
使用方式:
暂无
卫星简介
星链(Starlink)计划是由太空探索技术公司(SpaceX)提出的一个巨型低轨卫星互联网星座项目,计划在2019年至2024年间在太空搭建由约1.2万颗卫星组成的“星链”网络,其中1584颗将部署在地球上空550千米处的近地轨道,并从2020年开始工作。该卫星仍在工作。
2D轨道图
3D轨道图
轨道高度分析图
轨道倾角分析图
轨道综合分析图
查看轨道综合分析图